Theta_e
315 315 314 314 314 314 314 315 315 314 314 314 316 315 315 314 313 315 316 317 317 316 316 317 316 317 317 317 317 318 322 322 320 318 319 313 315 311 311 312 310 311 312 312 310
312 312 312 312 313 313 313 313 313 313 313 313 314 316 315 315 315 315 317 316 315 316 317 317 317 317 318 317 316 318 320 320 318 317 318 315 314 315 312 312 311 311 312 312 311
310 310 310 310 311 311 311 311 311 312 312 313 313 314 316 315 316 316 317 316 315 315 317 317 317 316 317 316 316 316 321 317 317 315 314 315 313 312 314 316 315 315 313 312 310
312 312 312 312 311 310 310 310 311 311 311 311 312 313 315 316 319 316 317 316 314 314 316 317 318 317 319 319 315 318 315 315 315 314 313 314 312 313 312 316 315 314 312 312 310
312 313 313 313 313 314 313 312 310 310 310 310 311 312 314 315 316 316 316 316 314 314 314 316 318 316 320 316 315 317 315 314 315 313 313 312 313 314 313 314 313 313 312 311 310
312 313 313 314 314 314 313 313 312 311 310 309 310 311 313 315 315 317 315 314 314 314 313 315 317 317 315 317 317 314 314 315 313 313 313 314 315 310 315 314 313 313 312 311 310
312 312 312 312 312 312 313 313 312 311 310 309 309 311 313 314 314 316 316 314 313 313 313 314 316 316 315 314 311 312 316 317 314 313 314 311 315 315 315 313 311 311 311 311 310
312 312 312 312 312 312 312 312 312 311 311 310 310 312 313 313 315 315 316 315 312 312 312 313 314 315 313 311 312 315 314 319 316 313 312 313 317 318 314 310 312 311 308 310 310
313 313 313 313 313 312 312 311 311 310 310 310 311 312 315 314 315 316 317 313 311 311 312 312 314 314 312 317 318 317 319 318 316 312 313 314 317 316 314 311 311 312 310 307 309
313 314 313 313 312 312 312 310 310 310 310 312 313 315 313 314 315 316 316 314 311 311 312 312 313 317 315 318 317 319 318 317 317 315 311 314 315 315 314 311 312 313 313 308 306
306 309 311 311 311 310 310 308 308 309 311 312 314 314 313 314 315 315 315 313 310 310 314 313 316 317 318 317 317 316 316 318 318 311 312 314 314 314 313 313 313 312 313 309 305
307 306 306 307 308 307 306 305 306 308 309 309 311 312 313 314 314 313 313 313 312 314 312 314 316 317 313 313 314 315 317 319 317 310 309 313 312 312 312 313 312 313 313 312 306
309 308 307 306 306 305 305 305 306 308 312 311 310 310 311 311 311 312 312 312 313 313 313 315 316 310 313 313 314 315 317 318 316 311 308 308 313 311 311 308 309 310 310 310 307
310 310 309 308 307 306 306 307 309 311 312 311 309 310 310 311 309 309 311 311 310 313 312 314 312 312 313 315 315 317 314 313 312 313 316 309 316 315 313 311 311 312 311 308 310
313 311 309 308 308 307 308 310 311 309 312 309 307 308 312 311 308 308 308 308 312 310 312 315 311 311 314 315 313 316 308 310 309 312 309 314 312 314 307 310 312 314 313 309 310
315 313 311 310 310 307 308 310 311 309 308 309 310 310 312 310 308 306 307 307 307 310 309 312 306 310 313 305 307 305 308 308 306 308 314 314 313 313 313 312 312 313 311 309 310
317 314 313 312 311 308 309 310 311 308 306 309 312 310 311 312 310 308 308 308 312 313 314 312 311 307 306 311 307 308 313 318 321 318 318 309 310 312 312 312 312 314 313 309 308
320 316 315 313 312 309 309 311 309 311 310 308 310 310 313 311 311 309 309 312 309 309 313 315 316 308 308 314 316 310 315 320 323 319 318 305 311 314 311 311 311 307 307 307 307
321 317 315 315 314 309 307 310 310 311 310 309 310 311 312 311 310 310 311 313 313 310 315 314 315 305 304 305 311 309 312 312 317 305 313 314 315 312 309 308 307 306 306 306 307
322 318 316 316 314 309 308 310 310 309 307 309 311 311 311 312 310 311 311 311 313 309 312 314 314 308 302 303 302 306 307 312 313 320 319 315 315 314 313 311 309 307 307 308 308
321 315 316 315 311 309 310 309 309 308 307 310 311 311 310 311 311 311 311 311 311 309 309 312 314 310 305 307 310 306 309 307 309 313 317 316 315 310 311 311 310 310 310 310 308
317 315 315 314 310 309 310 310 307 308 306 309 308 309 310 309 310 311 311 311 310 308 309 311 313 315 313 303 302 308 310 310 313 314 311 313 315 310 310 311 309 310 309 309 310
316 315 312 313 314 310 310 311 309 310 309 309 310 310 308 309 308 310 311 309 308 310 311 309 312 317 315 306 301 306 306 308 310 312 313 315 313 312 312 310 308 309 309 309 310
316 312 307 308 311 312 312 313 312 310 310 307 308 308 308 310 309 310 310 308 306 308 309 309 312 315 313 313 308 309 308 307 309 312 313 313 312 312 312 311 311 310 305 307 308
316 311 307 305 306 310 311 313 315 313 310 309 309 309 310 311 311 311 311 311 305 306 307 310 313 313 314 314 313 313 311 309 308 309 311 312 312 312 312 311 311 310 309 309 309
312 310 306 308 308 308 309 312 313 314 314 312 311 312 309 310 311 316 313 310 310 307 310 307 313 312 312 311 311 312 311 312 312 311 311 309 309 309 310 310 309 309 309 308 308
308 311 309 306 307 307 308 309 311 312 312 312 312 311 312 311 310 310 311 311 310 310 310 308 310 312 314 312 312 313 312 312 312 312 312 312 311 311 311 310 310 310 309 308 307
Wind_Speed
4 6 7 8 9 10 11 11 11 11 10 8 4 2 0 1 1 3 4 4 3 2 2 1 1 5 5 2 2 3 3 4 3 5 2 6 9 6 7 6 8 11 13 11 8
5 6 7 9 10 10 10 11 11 11 10 8 5 1 5 5 5 7 7 4 2 1 1 1 2 8 3 1 0 3 3 2 1 3 3 5 11 6 6 10 11 14 22 19 15
8 8 8 8 10 10 10 10 11 11 11 9 7 5 4 6 7 8 11 7 3 1 1 0 2 7 3 3 1 1 3 1 3 6 5 5 6 7 8 12 17 18 17 23 22
10 10 10 10 10 11 12 12 11 12 12 11 9 7 5 5 5 7 12 9 5 3 3 3 1 3 3 3 2 3 5 4 2 3 4 5 4 6 17 23 13 12 16 18 25
13 13 13 14 13 13 13 14 14 14 14 12 12 8 6 7 12 9 13 12 9 6 4 4 3 3 3 4 2 5 4 5 6 7 8 7 13 11 19 22 21 23 20 19 23
16 16 15 16 16 16 15 15 16 15 15 15 13 10 8 8 9 11 14 14 13 10 8 6 4 3 2 4 4 3 5 8 7 7 8 6 7 3 7 9 13 19 22 24 25
18 18 18 18 18 18 18 17 18 18 17 17 15 11 13 15 11 12 14 14 13 11 9 7 5 3 4 2 2 1 6 7 11 5 5 4 9 12 21 16 14 17 18 21 26
20 20 20 21 20 21 20 19 19 19 19 18 15 11 9 12 12 14 14 13 12 10 8 7 5 3 2 4 1 3 3 4 5 7 3 4 15 10 10 12 17 18 18 22 26
23 22 22 22 22 22 21 21 20 19 18 17 12 8 9 10 13 15 14 12 11 9 7 6 5 3 4 4 5 5 10 9 5 10 3 10 16 4 11 13 23 26 24 24 25
27 25 24 23 23 23 23 22 21 19 16 12 12 5 14 8 9 10 13 14 10 8 4 5 3 4 3 7 12 11 7 8 10 5 8 11 21 22 31 22 35 36 27 26 27
27 28 27 24 24 23 23 19 8 6 7 9 4 7 8 9 9 9 12 12 10 6 7 2 7 16 18 17 14 7 8 16 14 4 5 16 20 25 32 29 36 36 31 26 29
26 27 27 25 23 21 20 11 10 8 10 15 21 25 27 22 9 16 14 11 9 10 7 4 15 18 0 6 9 8 13 20 13 2 7 14 21 24 23 32 35 36 34 24 22
26 28 28 23 23 19 17 14 11 8 6 9 20 18 24 22 14 18 17 11 8 9 14 16 11 2 8 8 11 11 18 14 10 5 7 11 17 7 8 15 21 32 28 20 22
21 23 26 24 17 16 12 8 4 2 5 6 6 7 10 9 5 13 19 7 4 10 9 10 4 8 7 11 12 13 9 11 7 5 11 4 19 11 9 11 13 32 20 19 21
20 18 18 19 10 9 6 5 5 1 9 1 3 4 7 7 4 4 15 9 8 8 7 6 8 9 10 9 11 5 2 4 3 8 6 11 10 10 2 7 18 21 18 20 22
18 16 15 15 10 12 8 7 7 4 11 3 4 5 4 5 2 5 5 3 2 4 5 7 1 5 4 3 0 9 3 2 1 3 9 17 14 8 4 7 9 14 13 14 18
21 18 18 16 8 10 13 12 5 9 2 7 7 6 4 7 6 8 8 9 9 6 10 5 9 3 4 5 3 5 4 6 6 5 12 3 8 20 14 13 13 18 11 12 15
26 25 26 19 13 12 20 4 15 9 16 3 5 5 10 12 8 10 7 9 13 5 2 7 14 13 12 16 7 12 8 6 11 13 22 7 11 13 10 18 25 12 15 11 14
31 34 35 29 19 17 14 10 16 12 9 9 3 6 9 5 4 7 13 9 11 21 15 8 15 3 1 1 5 8 8 2 4 2 8 11 22 8 6 11 10 19 17 23 22
41 41 43 34 25 24 7 24 14 11 7 6 19 16 17 15 9 11 11 6 9 15 21 4 10 3 3 2 1 4 5 4 3 6 16 24 30 17 11 15 10 11 20 25 22
38 17 23 28 32 20 11 14 11 17 12 13 20 18 15 16 15 12 16 5 9 7 13 5 6 3 6 12 16 6 6 4 3 5 9 19 18 3 5 3 11 14 22 19 22
28 5 20 32 13 7 12 10 6 7 12 11 5 13 23 16 13 13 17 15 20 14 12 8 3 11 21 3 2 8 15 18 9 10 9 13 28 6 5 5 4 8 16 16 14
12 10 31 47 10 11 13 14 9 12 12 8 13 12 10 14 10 15 18 9 16 13 12 10 5 6 12 5 2 8 8 11 17 15 30 13 24 15 21 7 8 11 17 18 20
10 4 6 22 16 19 19 20 16 18 15 8 4 3 0 8 11 11 14 3 7 6 1 12 6 12 20 21 2 5 13 19 23 17 22 25 30 37 35 22 23 26 21 26 34
13 6 12 7 13 15 16 7 21 14 15 13 5 21 21 18 20 20 28 20 4 5 1 5 11 12 19 23 22 24 19 19 26 28 27 30 25 33 34 27 26 33 29 32 34
12 5 11 4 30 25 23 19 28 25 19 13 17 22 20 24 23 22 21 19 15 4 7 4 18 19 26 30 32 34 23 35 32 35 30 25 28 36 37 48 38 50 38 43 43
14 23 16 14 11 13 21 26 25 26 27 34 28 18 20 25 42 47 41 29 10 14 15 9 7 9 21 24 23 15 32 34 41 38 32 31 34 36 34 30 32 46 37 40 47
Wind_Direction
340 348 354 359 5 7 10 12 14 18 25 31 33 231 276 38 183 204 198 168 153 116 59 195 258 182 180 187 169 164 233 244 227 196 150 171 204 200 214 210 207 211 228 230 214
317 327 335 340 344 351 354 354 357 358 1 2 4 302 241 246 273 251 219 203 183 102 78 156 171 166 177 158 158 233 254 249 217 193 238 204 222 209 204 210 232 236 239 236 230
306 315 321 325 330 332 336 338 339 341 343 344 338 325 255 254 274 241 214 211 222 354 15 159 151 177 171 167 178 223 267 188 237 231 221 230 230 211 234 238 237 232 236 237 229
303 309 313 318 322 325 326 326 327 329 331 330 329 315 277 239 241 206 207 216 224 265 319 311 233 175 180 206 184 239 244 231 259 215 197 224 192 225 226 248 261 256 250 244 226
293 298 304 309 312 315 319 320 319 320 322 324 321 307 279 246 246 234 217 220 228 241 254 264 244 179 217 191 202 227 212 230 250 256 243 241 242 252 249 255 257 263 260 248 233
288 292 296 301 307 310 311 312 310 312 313 314 312 296 269 245 250 231 223 227 235 238 247 254 239 250 181 205 223 193 253 261 268 253 240 237 251 227 258 218 231 245 252 248 239
284 288 293 297 301 304 306 308 304 304 304 305 305 289 270 267 255 234 227 231 237 239 240 249 241 214 176 210 230 303 291 275 228 227 237 213 257 236 260 254 253 250 244 241 240
279 283 288 293 298 300 303 306 304 302 301 301 300 283 258 260 247 238 234 234 235 236 239 235 232 227 183 159 126 239 248 256 159 177 192 199 277 254 261 245 250 246 240 246 239
273 277 281 285 291 295 301 304 304 301 296 291 284 261 263 260 243 236 228 225 229 229 226 222 219 197 162 225 256 213 272 231 270 211 159 213 280 259 243 255 267 265 256 248 241
267 270 274 280 285 291 296 303 304 298 280 268 250 252 246 243 238 231 222 220 218 215 208 205 190 230 206 205 258 263 245 252 261 186 215 232 258 278 275 262 267 273 266 248 237
270 270 272 277 282 288 294 309 305 293 245 225 211 231 258 241 241 230 217 209 211 202 218 147 229 240 246 230 267 267 258 261 267 196 243 255 261 269 281 277 265 272 266 253 243
273 271 272 275 278 285 291 296 279 271 296 255 248 251 256 259 254 243 220 188 181 222 146 178 239 252 356 216 228 233 260 264 280 240 219 274 273 273 267 268 270 272 271 257 247
278 276 274 274 275 277 276 276 278 276 253 265 241 244 249 244 239 247 205 202 201 203 205 230 260 80 198 207 206 227 236 255 265 323 234 293 275 238 257 262 270 263 261 250 238
285 282 279 278 289 268 264 261 239 290 258 234 226 223 222 203 246 216 195 194 201 240 195 241 245 211 198 229 205 239 230 244 263 295 280 4 291 281 252 244 264 272 257 241 241
293 288 286 276 250 246 243 202 161 71 276 42 177 212 178 186 126 204 192 197 216 183 174 224 180 190 206 229 177 249 103 170 206 255 315 254 269 279 167 244 257 261 263 234 227
287 285 280 287 265 225 202 167 142 210 241 239 173 186 166 212 196 127 163 166 135 175 245 261 150 216 213 83 118 136 113 134 144 258 254 256 225 278 229 211 248 265 235 222 210
270 270 269 273 269 211 177 150 228 232 43 195 201 191 209 186 198 188 170 180 189 179 216 196 220 171 174 135 119 194 177 278 258 226 264 152 233 261 283 242 234 254 256 212 203
259 252 260 260 265 200 168 175 239 195 210 98 161 158 199 169 214 187 177 219 229 213 217 238 255 183 183 217 207 185 216 204 261 278 288 114 250 277 227 252 247 261 259 223 221
251 237 240 241 240 196 174 215 237 230 185 178 106 209 215 224 210 185 214 230 206 193 210 209 256 100 240 107 181 163 198 231 282 112 282 255 259 238 190 255 249 252 245 243 245
244 234 234 232 218 191 193 239 232 207 156 183 220 196 229 215 190 193 199 199 230 198 225 251 257 123 125 144 46 227 138 136 199 261 260 275 282 276 239 245 215 237 238 241 239
251 213 228 224 190 174 211 235 247 250 211 201 233 243 237 238 215 219 241 214 197 200 205 207 218 202 150 204 192 169 203 225 308 226 254 268 268 82 198 233 207 221 233 243 240
227 227 210 180 184 198 227 232 242 251 238 252 244 254 246 230 238 237 246 228 186 162 172 208 203 232 238 138 318 253 232 213 226 224 234 260 271 112 46 143 196 245 247 251 247
227 231 185 183 193 209 220 238 252 235 233 213 230 222 214 238 235 237 247 215 197 175 172 168 203 239 251 212 177 212 206 230 241 258 249 234 254 255 268 290 246 243 254 267 255
247 190 168 218 244 222 217 225 229 231 237 226 281 29 169 238 235 255 251 205 207 200 194 182 172 216 239 251 93 196 227 221 224 233 253 243 260 275 275 273 277 271 258 258 262
237 217 185 179 240 234 230 228 236 240 229 205 220 224 234 247 252 257 260 250 176 168 167 175 233 238 252 267 279 280 275 257 236 243 244 258 260 263 275 276 271 274 274 272 268
255 186 185 218 221 216 218 219 228 238 227 226 223 231 231 240 239 260 244 248 239 199 218 196 246 247 253 260 263 260 262 263 266 260 254 256 262 263 268 277 282 276 270 273 271
270 262 237 189 193 207 223 227 233 238 244 235 232 231 233 226 226 241 250 257 210 230 227 208 217 210 239 228 246 252 239 247 255 261 256 254 253 267 268 265 261 271 276 268 268